Castlegar, British Columbia

6:19 AM PDT on May 24, 2017 (GMT -0700)
Castlegar

Weather History for CYCG - April, 2014

Change the Weather History Date:

Monday, April 7, 2014

  Actual Average Record
Temperature  
Mean Temperature 50 °F -  
Max Temperature 68 °F 58 °F 69 °F (2009)
Min Temperature 33 °F 37 °F 24 °F (2013)
Degree Days  
Heating Degree Days 14    
Moisture  
Dew Point 34 °F    
Average Humidity 53    
Maximum Humidity 81    
Minimum Humidity 23    
Precipitation  
Precipitation 0.00 in 0.07 in - ()
Sea Level Pressure  
Sea Level Pressure 30.23 in    
Wind  
Wind Speed 4 mph ()    
Max Wind Speed 10 mph    
Max Gust Speed -    
Visibility 15.0 miles    
Events      
Averages and records for this station are not official NWS values.
T = Trace of Precipitation, MM = Missing Value Source: Averaged Metar Reports

Daily Weather History Graph

Daily Weather History Graph

Search for Another Location

Airport or City:

Trip Planner

Search our weather history database for the weather conditions in past years. The results will help you decide how hot, cold, wet, or windy it might be!

Date:

Astronomy

Apr. 07, 2014 Rise Set
Actual Time 6:14 AM PDT 7:31 PM PDT
Civil Twilight 5:42 AM PDT 8:04 PM PDT
Nautical Twilight 5:02 AM PDT 8:43 PM PDT
Astronomical Twilight 4:20 AM PDT 9:26 PM PDT
Moon 12:01 PM PDT (4/7) 2:25 AM PDT (4/7)
Length of Visible Light 14h 21m
Length of Day
13h 16m
First Quarter, 54% of the Moon is Illuminated
Apr 7
First Quarter
Apr 15
Full
Apr 22
Last Quarter
Apr 28
New
May 6
First Quarter

Hourly Weather History & Observations

Time (PDT) Temp. Windchill Dew Point Humidity Pressure Visibility Wind Dir Wind Speed Gust Speed Precip Events Conditions
5:00 AM 41 °F - 33 °F 64% 30.23 in - SW 9.2 mph - -  
6:00 AM 35.6 °F - 30.2 °F 81% 30.29 in 15.0 mi Calm Calm - N/A   Scattered Clouds
7:00 AM 35.6 °F - 30.2 °F 81% 30.32 in 15.0 mi East 2.3 mph - N/A   Mostly Cloudy
8:00 AM 37.4 °F - 32.0 °F 81% 30.33 in 15.0 mi ESE 2.3 mph - N/A   Mostly Cloudy
9:00 AM 41.0 °F 39.0 °F 32.0 °F 70% 30.33 in 15.0 mi South 3.5 mph - N/A   Mostly Cloudy
10:00 AM 46.4 °F - 32.0 °F 57% 30.33 in 15.0 mi WSW 2.3 mph - N/A   Mostly Cloudy
11:00 AM 49 °F - 23 °F 23% 30.23 in - SW 10.4 mph - -  
11:00 AM 48.2 °F - 33.8 °F 58% 30.32 in 15.0 mi North 3.5 mph - N/A   Mostly Cloudy
12:00 PM 51.8 °F - 32.0 °F 47% 30.30 in 15.0 mi Variable 2.3 mph - N/A   Mostly Cloudy
1:00 PM 59.0 °F - 33.8 °F 39% 30.25 in 15.0 mi Calm Calm - N/A   Scattered Clouds
2:00 PM 62.6 °F - 37.4 °F 39% 30.22 in 15.0 mi Variable 3.5 mph - N/A   Mostly Cloudy
3:00 PM 66.2 °F - 37.4 °F 35% 30.18 in 15.0 mi West 5.8 mph - N/A   Scattered Clouds
4:00 PM 68.0 °F - 35.6 °F 30% 30.15 in 15.0 mi South 5.8 mph - N/A   Scattered Clouds
5:00 PM 42 °F - 34 °F 64% 30.24 in - SSE 3.5 mph - -  
5:00 PM 68.0 °F - 37.4 °F 33% 30.14 in 15.0 mi SSW 9.2 mph - N/A   Mostly Cloudy
6:00 PM 66.2 °F - 37.4 °F 35% 30.13 in 15.0 mi SSW 8.1 mph - N/A   Mostly Cloudy
7:00 PM 62.6 °F - 39.2 °F 42% 30.13 in 15.0 mi South 4.6 mph - N/A   Mostly Cloudy
8:00 PM 53.6 °F - 37.4 °F 54% 30.15 in 15.0 mi NNW 5.8 mph - N/A   Scattered Clouds
9:00 PM 50.0 °F - 37.4 °F 62% 30.17 in 15.0 mi Variable 2.3 mph - N/A   Partly Cloudy
11:00 PM 41 °F - 33 °F 64% 30.11 in - ESE 8.1 mph - -